{"data":{"norad_id":56165,"intl_designator":"2023-050D","name":"CHECKMATE 6","alt_names":[],"object_type":"PAYLOAD","status":"ACTIVE","operator":null,"country":"US","launch_date":"2023-04-02","launch_site_code":"AFWTR","launch_vehicle":null,"mission":null,"orbit_class":"UNKNOWN","rcs_meters":null,"size_class":null,"mass_kg":null,"dimensions":null,"purposes":[],"wikipedia_slug":null,"has_3d_model":false,"image_url":null,"decayed_at":null,"tle_current":{"epoch":"2026-05-24T23:06:27.554688Z","epoch_age_seconds":74435,"freshness":"FRESH","line1":"1 56165U 23050D   26144.96281892  .00000104  00000+0  80648-4 0  9999","line2":"2 56165  81.0036  94.1770 0011090  16.4270 343.7243 13.86173609158882","mean_motion":13.86173609,"eccentricity":0.001109,"inclination_deg":81.0036,"raan_deg":94.177,"arg_perigee_deg":16.427,"mean_anomaly_deg":343.7243,"bstar":8.0648e-5,"rev_number":15888,"period_min":103.88309160198,"perigee_km":933.95292948608,"apogee_km":950.18915091925,"semimajor_km":7320.2080402027,"source":"CELESTRAK","updated_at":"2026-05-25T13:37:59.368277Z"}}}